Regional Weather Roundup
Issued by NWS

Home | Current Version | Previous Version | Graphics & Text | Print | Product List | Glossary On
Versions: 1 2 3 4 5 6 7 8 9 10 11 12 13 14 15 16 17 18 19 20 21 22 23 24 25 26 27 28 29 30 31 32 33 34 35 36 37 38 39 40 41 42 43 44 45 46 47 48 49 50
000
ASUS43 KLMK 270902
RWRKY
KENTUCKY REGIONAL WEATHER ROUNDUP
NATIONAL WEATHER SERVICE LOUISVILLE KY
500 AM EDT TUE JUN 27 2017

NOTE "FAIR" INDICATES FEW OR NO CLOUDS BELOW 12,000 FEET
WITH NO SIGNIFICANT WEATHER AND/OR OBSTRUCTIONS TO VISIBILITY.

KYZ001>023-026-027-061>063-070>075-271000-
WESTERN AND SOUTH CENTRAL KENTUCKY

CITY           SKY/WX    TMP DP  RH WIND       PRES   REMARKS
PADUCAH        PTCLDY    62  58  86 CALM      30.10S
HENDERSON      CLEAR     53  52  96 CALM      30.13R
OWENSBORO      CLEAR     59  55  87 N3        30.12S
HOPKINSVILLE   CLOUDY    62  58  85 SW6       30.11R
BOWLING GREEN  CLEAR     61  59  93 N5        30.11R
GLASGOW        NOT AVBL
$$

KYZ024-025-028>034-038-045-046-053-271000-
NORTH CENTRAL KENTUCKY

CITY           SKY/WX    TMP DP  RH WIND       PRES   REMARKS
LOUISVILLE/SDF MOCLDY    61  57  87 CALM      30.11R
LOUISVILLE/LOU MOCLDY    60  58  92 CALM      30.12S
FORT KNOX      MOCLDY    56  54  92 CALM      30.10R
$$

KYZ035>037-039>044-047>052-055>060-089>105-271000-
NORTHEAST KENTUCKY

CITY           SKY/WX    TMP DP  RH WIND       PRES   REMARKS
LEXINGTON      MOCLDY    56  51  84 NE5       30.11F
COVINGTON      CLEAR     51  49  92 S3        30.09S
FRANKFORT      CLOUDY    57  54  89 SW5       30.11F
$$

KYZ054-064>069-076>088-106>120-271000-
SOUTHEAST KENTUCKY

CITY           SKY/WX    TMP DP  RH WIND       PRES   REMARKS
JACKSON        PTCLDY    61  50  67 CALM      30.11S
LONDON         MOCLDY    56  53  90 CALM      30.11S
SOMERSET       CLOUDY    54  54 100 CALM      30.13R
MIDDLESBORO    PTCLDY    55  54  99 CALM      30.13R
MONTICELLO     SUNNY     55  54  96 NW9       30.13S
$$





USA.gov is the U.S. government's official web portal to all federal, state and local government web resources and services.